period_start,C,m1,H,J0,J1,J2,J3,J4,J5,JA,JB,JC,JD,JJ,JK,JN,#
2014-02-20 00:00:15,0.10,5.78,0.00,16.65,21.91,25.27,6.08,32.63,1021.05,2056.02,1829.64,2078.65,2254.64,350.19,332.68,23.42,0000 0000 0000 0000 000000
2014-02-20 00:01:16,0.34,5.78,0.00,16.65,21.90,25.27,6.25,32.54,1021.09,2056.02,1829.26,2078.29,2254.26,349.77,332.30,23.43,0000 0000 0000 0000 000000
2014-02-20 00:02:16,0.37,5.79,0.00,16.64,21.89,25.27,6.21,32.50,1021.08,2056.02,1829.09,2078.13,2254.09,350.35,332.26,23.43,0000 0000 0000 0000 000000
2014-02-20 00:03:16,0.16,5.79,0.00,16.64,21.89,25.27,6.15,32.33,1021.14,2056.01,1829.03,2078.05,2254.03,349.88,332.43,23.44,0000 0000 0000 0000 000000
2014-02-20 00:04:16,0.06,5.79,0.00,16.64,21.89,25.24,6.17,32.38,1021.15,2056.03,1828.90,2078.01,2253.96,350.59,333.21,23.44,0000 0000 0000 0000 000000
2014-02-20 00:05:17,0.10,5.79,0.00,16.64,21.89,25.22,6.11,32.33,1021.07,2056.05,1828.47,2077.98,2253.84,350.22,332.42,23.45,0000 0000 0000 0000 000000
2014-02-20 00:06:17,0.23,5.79,0.00,16.64,21.88,25.19,6.28,32.46,1021.04,2056.09,1828.19,2077.86,2253.46,350.39,332.88,23.46,0000 0000 0000 0000 000000
2014-02-20 00:07:17,0.29,5.79,0.00,16.65,21.87,25.17,6.27,32.50,1021.02,2056.10,1828.07,2077.42,2253.17,349.88,332.98,23.46,0000 0000 0000 0000 000000
2014-02-20 00:08:18,0.32,5.79,0.00,16.65,21.87,25.16,6.24,32.63,1021.01,2056.21,1827.99,2077.16,2253.06,349.68,332.38,23.47,0000 0000 0000 0000 000000
2014-02-20 00:09:18,0.28,5.79,0.00,16.64,21.87,25.13,6.23,32.92,1021.01,2056.27,1827.62,2077.05,2253.02,350.21,332.70,23.47,0000 0000 0000 0000 000000
2014-02-20 00:10:18,0.22,5.80,0.00,16.65,21.87,25.12,5.99,33.00,1021.01,2056.44,1827.23,2077.02,2252.99,349.54,331.76,23.48,0000 0000 0000 0000 000000
2014-02-20 00:11:18,0.38,5.80,0.00,16.66,21.86,25.09,6.31,32.96,1021.01,2056.59,1827.08,2077.00,2252.96,349.92,332.36,23.49,0000 0000 0000 0000 000000
2014-02-20 00:12:19,0.22,5.80,0.00,16.66,21.85,25.10,6.17,32.75,1021.01,2056.56,1826.99,2076.90,2252.66,349.89,332.07,23.49,0000 0000 0000 0000 000000
2014-02-20 00:13:19,0.12,5.80,0.00,16.65,21.85,25.15,6.43,32.96,1021.01,2056.57,1826.66,2076.54,2252.30,351.21,333.39,23.50,0000 0000 0000 0000 000000
2014-02-20 00:14:19,0.42,5.80,0.00,16.66,21.84,25.14,6.26,32.92,1021.01,2056.64,1826.28,2076.21,2252.11,349.60,332.30,23.50,0000 0000 0000 0000 000000
2014-02-20 00:15:19,0.37,5.80,0.00,16.66,21.84,25.15,6.25,32.88,1021.01,2056.72,1826.10,2076.07,2252.04,350.21,332.33,23.51,0000 0000 0000 0000 000000
2014-02-20 00:16:20,0.21,5.81,0.00,16.66,21.84,25.07,6.33,32.75,1021.01,2056.73,1826.03,2076.03,2251.99,350.70,333.46,23.51,0000 0000 0000 0000 000000
2014-02-20 00:17:20,0.07,5.81,0.00,16.67,21.84,25.06,6.23,32.50,1021.01,2056.72,1825.91,2076.01,2251.88,350.17,332.78,23.52,0000 0000 0000 0000 000000
2014-02-20 00:18:20,0.08,5.81,0.00,16.67,21.83,25.11,6.08,32.29,1021.01,2056.71,1825.51,2075.87,2251.45,349.33,332.05,23.53,0000 0000 0000 0000 000000
2014-02-20 00:19:21,0.31,5.81,0.00,16.66,21.82,25.14,6.13,32.54,1021.01,2056.73,1825.19,2075.47,2251.20,350.16,332.63,23.53,0000 0000 0000 0000 000000
2014-02-20 00:20:21,0.40,5.81,0.00,16.66,21.82,25.11,6.08,32.54,1021.01,2056.78,1825.07,2075.18,2251.07,349.78,332.06,23.54,0000 0000 0000 0000 000000
2014-02-20 00:21:21,0.21,5.81,0.00,16.67,21.82,25.05,6.18,32.46,1021.01,2056.88,1825.02,2075.08,2251.02,350.19,332.63,23.54,0000 0000 0000 0000 000000
2014-02-20 00:22:21,0.18,5.81,0.00,16.67,21.82,25.07,6.19,32.63,1021.01,2056.92,1824.90,2075.03,2250.99,350.10,332.28,23.55,0000 0000 0000 0000 000000
2014-02-20 00:23:22,0.13,5.81,0.00,16.67,21.82,25.08,6.26,32.50,1021.01,2056.90,1824.49,2075.01,2250.78,349.65,331.40,23.56,0000 0000 0000 0000 000000
2014-02-20 00:24:22,0.18,5.82,0.00,16.65,21.81,25.12,6.27,32.75,1021.01,2056.93,1824.18,2074.99,2250.41,350.00,332.50,23.56,0000 0000 0000 0000 000000
2014-02-20 00:25:22,0.24,5.82,0.00,16.65,21.80,25.09,6.18,32.58,1021.00,2056.97,1824.06,2074.76,2250.15,349.74,332.24,23.57,0000 0000 0000 0000 000000
2014-02-20 00:26:22,0.26,5.82,0.00,16.66,21.80,25.14,6.27,32.50,1021.01,2056.98,1823.99,2074.37,2250.05,350.60,333.16,23.57,0000 0000 0000 0000 000000
2014-02-20 00:27:23,0.24,5.82,0.00,16.66,21.79,25.11,6.22,32.50,1020.98,2056.98,1823.60,2074.14,2250.02,349.93,332.41,23.58,0000 0000 0000 0000 000000
2014-02-20 00:28:23,0.22,5.82,0.00,16.65,21.79,25.14,6.23,32.50,1020.99,2056.97,1823.23,2074.05,2249.98,349.58,332.08,23.59,0000 0000 0000 0000 000000
2014-02-20 00:29:23,0.18,5.82,0.00,16.69,21.79,25.10,6.08,32.67,1020.98,2056.97,1823.08,2074.01,2249.82,349.40,331.87,23.59,0000 0000 0000 0000 000000
2014-02-20 00:30:23,0.13,5.82,0.00,16.66,21.79,25.04,6.17,32.83,1020.96,2056.97,1822.74,2073.83,2249.40,350.26,332.62,23.60,0000 0000 0000 0000 000000
2014-02-20 00:31:24,0.28,5.82,0.00,16.61,21.79,24.90,6.22,32.67,1021.00,2056.98,1822.29,2073.42,2249.15,350.07,332.59,23.60,0000 0000 0000 0000 000000
2014-02-20 00:32:24,0.42,5.83,0.00,16.56,21.78,24.71,6.20,32.83,1021.00,2056.99,1822.11,2073.17,2249.05,350.00,332.59,23.61,0000 0000 0000 0000 000000
2014-02-20 00:33:24,0.21,5.83,0.00,16.51,21.77,24.51,6.17,32.79,1021.00,2056.97,1822.02,2073.08,2249.02,349.80,332.45,23.61,0000 0000 0000 0000 000000
2014-02-20 00:34:24,0.07,5.83,0.00,16.47,21.77,24.38,6.34,32.83,1020.99,2056.95,1821.97,2073.03,2249.00,350.30,332.98,23.62,0000 0000 0000 0000 000000
2014-02-20 00:35:25,0.04,5.83,0.00,16.43,21.77,24.21,6.33,33.08,1020.94,2056.97,1821.55,2073.00,2248.80,350.08,332.80,23.63,0000 0000 0000 0000 000000
2014-02-20 00:36:25,0.20,5.83,0.00,16.39,21.76,24.14,6.10,32.83,1020.94,2056.99,1821.20,2072.93,2248.40,350.16,332.94,23.63,0000 0000 0000 0000 000000
2014-02-20 00:37:25,0.28,5.83,0.00,16.36,21.75,24.01,6.31,33.00,1020.91,2056.99,1821.05,2072.59,2248.14,350.38,333.08,23.64,0000 0000 0000 0000 000000
2014-02-20 00:38:25,0.25,5.83,0.00,16.32,21.74,23.94,6.12,32.67,1020.77,2056.99,1820.96,2072.28,2248.05,349.43,332.25,23.64,0000 0000 0000 0000 000000
2014-02-20 00:39:26,0.20,5.83,0.00,16.29,21.74,23.82,6.21,32.96,1020.72,2056.99,1820.64,2072.12,2248.01,350.63,333.41,23.65,0000 0000 0000 0000 000000
2014-02-20 00:40:26,0.18,5.84,0.00,16.26,21.72,23.79,6.21,32.92,1020.71,2056.99,1820.28,2072.04,2247.96,349.67,332.44,23.66,0000 0000 0000 0000 000000
2014-02-20 00:41:26,0.19,5.84,0.00,16.23,21.72,23.74,6.25,32.88,1020.74,2056.99,1820.11,2072.01,2247.69,350.60,333.46,23.66,0000 0000 0000 0000 000000
2014-02-20 00:42:26,0.14,5.84,0.00,16.21,21.71,23.66,6.00,32.96,1020.67,2056.99,1820.03,2071.98,2247.36,349.08,332.40,23.67,0000 0000 0000 0000 000000
2014-02-20 00:43:27,0.12,5.84,0.00,16.17,21.70,23.53,6.10,32.88,1020.72,2056.99,1819.93,2071.93,2247.13,349.89,332.85,23.67,0000 0000 0000 0000 000000
2014-02-20 00:44:27,0.17,5.84,0.00,16.14,21.69,23.48,6.17,33.04,1020.68,2057.00,1819.47,2071.65,2247.05,350.43,333.01,23.68,0000 0000 0000 0000 000000
2014-02-20 00:45:27,0.29,5.84,0.00,16.12,21.68,23.42,6.20,32.92,1020.63,2057.01,1819.17,2071.29,2247.00,349.63,332.51,23.68,0000 0000 0000 0000 000000
2014-02-20 00:46:28,0.26,5.84,0.00,16.09,21.67,23.36,6.21,32.92,1020.58,2057.00,1819.06,2071.11,2246.94,350.21,333.34,23.69,0000 0000 0000 0000 000000
2014-02-20 00:47:28,0.13,5.84,0.00,16.06,21.66,23.27,6.21,33.00,1020.61,2057.01,1819.00,2071.04,2246.69,349.30,332.55,23.70,0000 0000 0000 0000 000000
2014-02-20 00:48:28,0.14,5.84,0.00,16.02,21.64,23.18,6.32,32.67,1020.62,2057.00,1818.61,2071.01,2246.30,350.62,333.61,23.70,0000 0000 0000 0000 000000
2014-02-20 00:49:28,0.22,5.85,0.00,16.00,21.64,23.10,6.13,33.00,1020.61,2057.01,1818.23,2070.99,2246.11,349.15,332.68,23.71,0000 0000 0000 0000 000000
2014-02-20 00:50:28,0.21,5.85,0.00,15.98,21.62,23.07,6.23,32.79,1020.65,2057.01,1818.08,2070.84,2246.04,350.71,333.82,23.71,0000 0000 0000 0000 000000
2014-02-20 00:51:29,0.15,5.85,0.00,15.95,21.61,23.01,6.13,33.00,1020.65,2057.02,1818.01,2070.46,2246.00,349.69,332.88,23.72,0000 0000 0000 0000 000000
2014-02-20 00:52:29,0.20,5.85,0.00,15.94,21.60,22.98,6.20,32.92,1020.60,2057.07,1817.86,2070.19,2245.98,350.25,333.62,23.73,0000 0000 0000 0000 000000
2014-02-20 00:53:29,0.24,5.85,0.00,15.92,21.59,22.89,6.09,32.96,1020.57,2057.11,1817.39,2070.07,2245.94,349.51,332.87,23.73,0000 0000 0000 0000 000000
2014-02-20 00:54:30,0.32,5.85,0.00,15.89,21.57,22.81,6.23,32.79,1020.54,2057.33,1817.15,2070.02,2245.56,350.19,333.16,23.74,0000 0000 0000 0000 000000
2014-02-20 00:55:30,0.40,5.85,0.00,15.87,21.56,22.77,6.16,32.83,1020.56,2057.50,1817.04,2070.01,2245.24,350.53,333.84,23.74,0000 0000 0000 0000 000000
2014-02-20 00:56:30,0.30,5.86,0.00,15.85,21.55,22.78,6.19,33.00,1020.57,2057.63,1816.84,2069.96,2245.09,350.02,333.63,23.75,0000 0000 0000 0000 000000
2014-02-20 00:57:30,0.29,5.86,0.00,15.83,21.54,22.73,6.15,33.17,1020.54,2057.81,1816.38,2069.77,2245.03,350.10,333.53,23.76,0000 0000 0000 0000 000000
2014-02-20 00:58:31,0.43,5.86,0.00,15.82,21.52,22.68,6.24,33.25,1020.52,2057.88,1816.15,2069.38,2245.01,349.93,333.51,23.76,0000 0000 0000 0000 000000
2014-02-20 00:59:31,0.32,5.86,0.00,15.80,21.51,22.63,6.14,33.08,1020.53,2057.90,1816.05,2069.15,2244.99,349.53,333.28,23.77,0000 0000 0000 0000 000000
2014-02-20 01:00:31,0.17,5.86,0.00,15.77,21.50,22.65,6.30,33.33,1020.52,2057.94,1815.99,2069.05,2244.91,349.99,333.28,23.77,0000 0000 0000 0000 000000
2014-02-20 01:01:31,0.13,5.86,0.00,15.74,21.48,22.58,6.23,33.29,1020.52,2057.97,1815.65,2069.02,2244.53,350.50,333.86,23.78,0000 0000 0000 0000 000000
2014-02-20 01:02:32,0.24,5.87,0.00,15.72,21.47,22.56,6.27,33.38,1020.52,2057.96,1815.27,2069.00,2244.21,349.65,333.07,23.78,0000 0000 0000 0000 000000
2014-02-20 01:03:32,0.23,5.87,0.00,15.71,21.45,22.57,6.32,33.17,1020.53,2057.98,1815.10,2068.97,2244.08,350.68,334.07,23.79,0000 0000 0000 0000 000000
2014-02-20 01:04:32,0.11,5.87,0.00,15.68,21.44,22.50,6.12,33.21,1020.52,2057.98,1815.02,2068.73,2244.02,349.88,333.68,23.80,0000 0000 0000 0000 000000
2014-02-20 01:05:33,0.15,5.87,0.00,15.67,21.42,22.51,6.29,33.38,1020.52,2057.99,1814.98,2068.32,2243.96,350.30,333.76,23.80,0000 0000 0000 0000 000000
2014-02-20 01:06:33,0.25,5.87,0.00,15.65,21.41,22.42,6.28,33.33,1020.52,2057.99,1814.81,2068.13,2243.56,350.06,333.55,23.81,0000 0000 0000 0000 000000
2014-02-20 01:07:33,0.25,5.87,0.00,15.64,21.40,22.37,6.23,33.13,1020.52,2057.99,1814.40,2068.05,2243.23,350.18,333.67,23.81,0000 0000 0000 0000 000000
2014-02-20 01:08:33,0.23,5.87,0.00,15.62,21.38,22.36,6.21,33.00,1020.52,2057.99,1814.16,2068.01,2243.08,349.23,332.67,23.82,0000 0000 0000 0000 000000
2014-02-20 01:09:34,0.14,5.87,0.00,15.60,21.37,22.34,6.20,33.13,1020.52,2058.00,1814.05,2068.00,2243.03,350.67,334.18,23.83,0000 0000 0000 0000 000000
2014-02-20 01:10:34,0.06,5.87,0.00,15.59,21.35,22.31,6.18,33.42,1020.52,2058.00,1813.96,2067.96,2243.01,350.16,333.71,23.83,0000 0000 0000 0000 000000
2014-02-20 01:11:34,0.08,5.87,0.00,15.57,21.34,22.29,6.23,33.50,1020.52,2058.01,1813.57,2067.78,2242.96,349.88,333.19,23.84,0000 0000 0000 0000 000000
2014-02-20 01:12:35,0.23,5.88,0.00,15.56,21.32,22.28,6.18,33.17,1020.52,2058.02,1813.23,2067.40,2242.70,349.99,333.58,23.84,0000 0000 0000 0000 000000
2014-02-20 01:13:35,0.36,5.88,0.00,15.56,21.31,22.25,6.13,33.21,1020.52,2058.03,1813.09,2067.18,2242.37,350.10,334.24,23.85,0000 0000 0000 0000 000000
2014-02-20 01:14:35,0.24,5.88,0.00,15.54,21.30,22.20,6.23,33.00,1020.51,2058.06,1813.02,2067.07,2242.15,350.46,334.04,23.85,0000 0000 0000 0000 000000
2014-02-20 01:15:36,0.17,5.88,0.00,15.53,21.28,22.20,6.25,33.33,1020.52,2058.15,1812.85,2067.02,2242.05,350.27,333.88,23.86,0000 0000 0000 0000 000000
2014-02-20 01:16:36,0.20,5.88,0.00,15.52,21.27,22.22,6.16,33.21,1020.52,2058.28,1812.39,2066.99,2242.02,349.93,333.59,23.87,0000 0000 0000 0000 000000
2014-02-20 01:17:36,0.31,5.89,0.00,15.50,21.25,22.20,6.28,33.33,1020.52,2058.43,1812.15,2066.99,2242.00,350.51,334.14,23.87,0000 0000 0000 0000 000000
2014-02-20 01:18:36,0.31,5.89,0.00,15.50,21.24,22.18,6.13,32.96,1020.49,2058.70,1812.05,2066.87,2241.97,349.81,333.45,23.88,0000 0000 0000 0000 000000
2014-02-20 01:19:37,0.36,5.89,0.00,15.51,21.22,22.18,6.37,33.17,1020.45,2058.86,1812.00,2066.49,2241.85,350.68,334.28,23.88,0000 0000 0000 0000 000000
2014-02-20 01:20:37,0.38,5.89,0.00,15.50,21.22,22.15,6.20,33.00,1020.37,2058.93,1811.85,2066.21,2241.56,349.74,333.23,23.89,0000 0000 0000 0000 000000
2014-02-20 01:21:37,0.32,5.89,0.00,15.49,21.20,22.13,6.09,33.00,1020.29,2058.96,1811.41,2066.08,2241.28,350.04,333.86,23.90,0000 0000 0000 0000 000000
2014-02-20 01:22:37,0.27,5.89,0.00,15.48,21.19,22.13,6.32,33.25,1020.28,2058.96,1811.15,2066.03,2241.10,350.39,333.89,23.90,0000 0000 0000 0000 000000
2014-02-20 01:23:38,0.17,5.89,0.00,15.47,21.17,22.07,6.16,33.04,1020.18,2058.98,1811.05,2065.99,2241.03,349.91,333.51,23.91,0000 0000 0000 0000 000000
2014-02-20 01:24:38,0.07,5.90,0.00,15.47,21.17,22.03,6.33,33.17,1020.13,2058.98,1811.02,2065.98,2241.01,350.59,334.14,23.91,0000 0000 0000 0000 000000
2014-02-20 01:25:38,0.04,5.90,0.00,15.46,21.15,22.02,6.34,33.25,1020.13,2058.99,1811.00,2065.95,2240.99,350.25,334.15,23.92,0000 0000 0000 0000 000000
2014-02-20 01:26:39,0.03,5.90,0.00,15.45,21.14,22.01,6.18,33.25,1020.15,2058.99,1810.96,2065.79,2240.78,349.13,332.77,23.93,0000 0000 0000 0000 000000
2014-02-20 01:27:39,0.16,5.90,0.00,15.44,21.13,22.01,6.15,33.04,1020.15,2058.99,1810.62,2065.45,2240.35,350.15,333.84,23.93,0000 0000 0000 0000 000000
2014-02-20 01:28:39,0.35,5.90,0.00,15.44,21.12,22.02,6.30,33.58,1020.11,2058.99,1810.23,2065.18,2240.14,349.30,332.76,23.94,0000 0000 0000 0000 000000
2014-02-20 01:29:39,0.31,5.90,0.00,15.44,21.10,22.06,6.17,33.29,1020.09,2058.99,1810.08,2065.07,2240.05,351.20,334.63,23.94,0000 0000 0000 0000 000000
2014-02-20 01:30:39,0.13,5.90,0.00,15.44,21.09,22.04,6.11,33.38,1020.08,2059.00,1810.02,2065.02,2240.01,350.13,333.75,23.95,0000 0000 0000 0000 000000
2014-02-20 01:31:40,0.07,5.90,0.00,15.44,21.07,22.01,6.28,33.25,1020.07,2059.00,1809.79,2065.00,2239.98,350.59,333.92,23.95,0000 0000 0000 0000 000000
2014-02-20 01:32:40,0.12,5.90,0.00,15.44,21.07,22.01,6.07,33.25,1020.05,2059.02,1809.37,2064.99,2239.89,348.72,332.27,23.96,0000 0000 0000 0000 000000
2014-02-20 01:33:40,0.18,5.90,0.00,15.44,21.05,21.97,6.26,33.21,1020.05,2059.03,1809.13,2064.93,2239.57,350.72,334.41,23.97,0000 0000 0000 0000 000000
2014-02-20 01:34:40,0.23,5.91,0.00,15.44,21.04,21.94,6.28,33.13,1020.06,2059.05,1809.05,2064.61,2239.22,350.48,334.03,23.97,0000 0000 0000 0000 000000
2014-02-20 01:35:41,0.27,5.91,0.00,15.44,21.02,21.91,6.19,33.08,1020.04,2059.08,1809.00,2064.27,2239.08,349.89,333.47,23.98,0000 0000 0000 0000 000000
2014-02-20 01:36:41,0.23,5.91,0.00,15.43,21.02,21.91,6.23,33.13,1020.05,2059.17,1808.88,2064.10,2239.03,350.33,333.46,23.98,0000 0000 0000 0000 000000
2014-02-20 01:37:41,0.25,5.91,0.00,15.42,21.00,21.89,6.24,33.04,1020.04,2059.24,1808.42,2064.04,2239.00,349.87,333.70,23.99,0000 0000 0000 0000 000000
2014-02-20 01:38:42,0.27,5.91,0.00,15.42,20.99,21.88,6.38,33.21,1020.04,2059.34,1808.17,2064.01,2238.99,350.82,333.36,24.00,0000 0000 0000 0000 000000
2014-02-20 01:39:42,0.25,5.91,0.00,15.42,20.97,21.88,6.23,33.21,1020.04,2059.53,1808.05,2063.97,2238.90,350.43,334.01,24.00,0000 0000 0000 0000 000000
2014-02-20 01:40:42,0.26,5.91,0.00,15.42,20.96,21.88,6.12,33.00,1020.04,2059.72,1808.00,2063.85,2238.62,350.05,333.68,24.01,0000 0000 0000 0000 000000
2014-02-20 01:41:43,0.32,5.92,0.00,15.42,20.94,21.92,6.12,33.21,1020.04,2059.86,1807.76,2063.57,2238.27,350.06,333.97,24.01,0000 0000 0000 0000 000000
2014-02-20 01:42:43,0.42,5.92,0.00,15.42,20.93,21.94,6.13,33.25,1020.03,2059.88,1807.33,2063.25,2238.10,349.89,333.50,24.02,0000 0000 0000 0000 000000
2014-02-20 01:43:43,0.36,5.92,0.00,15.42,20.92,21.91,6.27,33.00,1020.02,2059.92,1807.13,2063.11,2238.04,351.05,334.59,24.02,0000 0000 0000 0000 000000
2014-02-20 01:44:43,0.21,5.92,0.00,15.42,20.91,21.94,6.21,33.33,1020.02,2059.95,1807.03,2063.04,2238.01,349.87,333.47,24.03,0000 0000 0000 0000 000000
2014-02-20 01:45:44,0.11,5.92,0.00,15.42,20.89,21.93,6.20,33.21,1019.99,2059.97,1806.92,2063.01,2238.00,350.72,334.27,24.04,0000 0000 0000 0000 000000
2014-02-20 01:46:44,0.09,5.92,0.00,15.42,20.88,21.99,6.13,33.08,1019.90,2059.98,1806.64,2062.99,2237.92,350.01,333.57,24.04,0000 0000 0000 0000 000000
2014-02-20 01:47:44,0.17,5.92,0.00,15.42,20.87,21.93,6.27,33.04,1019.74,2059.98,1806.27,2062.95,2237.45,350.94,334.39,24.05,0000 0000 0000 0000 000000
2014-02-20 01:48:44,0.23,5.92,0.00,15.43,20.85,21.89,6.03,33.29,1019.67,2059.98,1806.09,2062.73,2237.21,349.71,333.19,24.05,0000 0000 0000 0000 000000
2014-02-20 01:49:45,0.25,5.93,0.00,15.44,20.84,21.90,6.25,33.42,1019.60,2059.98,1805.97,2062.31,2237.08,350.22,333.64,24.06,0000 0000 0000 0000 000000
2014-02-20 01:50:45,0.24,5.93,0.00,15.46,20.82,21.90,6.18,33.21,1019.57,2059.99,1805.72,2062.12,2237.03,350.44,333.62,24.07,0000 0000 0000 0000 000000
2014-02-20 01:51:45,0.21,5.93,0.00,15.47,20.82,21.93,6.14,32.88,1019.56,2059.99,1805.33,2062.05,2236.99,349.87,333.26,24.07,0000 0000 0000 0000 000000
2014-02-20 01:52:46,0.16,5.93,0.00,15.47,20.81,21.91,6.29,33.25,1019.55,2059.99,1805.12,2062.01,2236.96,350.25,333.70,24.08,0000 0000 0000 0000 000000
2014-02-20 01:53:46,0.09,5.93,0.00,15.48,20.79,21.88,6.17,33.17,1019.55,2059.99,1805.04,2061.99,2236.84,350.61,334.04,24.08,0000 0000 0000 0000 000000
2014-02-20 01:54:46,0.08,5.93,0.00,15.49,20.79,21.91,6.13,33.17,1019.55,2059.99,1805.00,2061.97,2236.45,349.54,333.38,24.09,0000 0000 0000 0000 000000
2014-02-20 01:55:46,0.12,5.93,0.00,15.49,20.77,21.99,6.10,33.08,1019.55,2059.99,1804.83,2061.80,2236.24,350.32,333.68,24.10,0000 0000 0000 0000 000000
2014-02-20 01:56:47,0.27,5.93,0.00,15.49,20.76,21.98,6.27,33.17,1019.55,2059.99,1804.38,2061.36,2236.09,350.14,333.61,24.10,0000 0000 0000 0000 000000
2014-02-20 01:57:47,0.33,5.94,0.00,15.49,20.75,22.02,6.39,33.25,1019.55,2059.99,1804.14,2061.14,2236.03,349.84,333.20,24.11,0000 0000 0000 0000 000000
2014-02-20 01:58:47,0.18,5.94,0.00,15.51,20.74,22.01,6.20,33.33,1019.55,2060.01,1804.04,2061.05,2236.01,350.14,333.13,24.11,0000 0000 0000 0000 000000
2014-02-20 01:59:48,0.09,5.94,0.00,15.52,20.72,22.06,6.28,33.25,1019.55,2060.03,1803.97,2061.01,2236.00,350.46,333.59,24.12,0000 0000 0000 0000 000000
2014-02-20 02:00:48,0.07,5.94,0.00,15.51,20.72,22.07,6.21,33.29,1019.53,2060.02,1803.76,2061.00,2235.89,349.89,333.21,24.12,0000 0000 0000 0000 000000
2014-02-20 02:01:48,0.16,5.94,0.00,15.52,20.71,22.05,6.25,33.17,1019.53,2060.04,1803.31,2060.95,2235.54,348.65,332.13,24.13,0000 0000 0000 0000 000000
2014-02-20 02:02:49,0.24,5.94,0.00,15.54,20.69,22.03,6.15,33.08,1019.53,2060.05,1803.11,2060.82,2235.23,350.63,333.89,24.14,0000 0000 0000 0000 000000
2014-02-20 02:03:49,0.26,5.94,0.00,15.54,20.69,22.04,6.25,33.50,1019.51,2060.07,1803.04,2060.48,2235.08,349.30,332.61,24.14,0000 0000 0000 0000 000000
2014-02-20 02:04:49,0.22,5.94,0.00,15.55,20.67,22.04,6.24,33.25,1019.51,2060.12,1802.99,2060.21,2235.03,348.73,332.43,24.15,0000 0000 0000 0000 000000
2014-02-20 02:05:50,0.18,5.94,0.00,15.55,20.67,22.06,6.14,33.17,1019.53,2060.15,1802.85,2060.07,2235.01,348.88,332.18,24.15,0000 0000 0000 0000 000000
2014-02-20 02:06:50,0.17,5.95,0.00,15.56,20.66,22.12,6.30,33.17,1019.54,2060.18,1802.41,2060.03,2234.97,350.25,333.50,24.16,0000 0000 0000 0000 000000
2014-02-20 02:07:50,0.18,5.95,0.00,15.57,20.64,22.12,6.01,33.00,1019.50,2060.31,1802.16,2060.00,2234.85,348.44,332.21,24.17,0000 0000 0000 0000 000000
2014-02-20 02:08:51,0.36,5.95,0.00,15.57,20.64,22.13,6.18,33.08,1019.34,2060.59,1802.05,2059.98,2234.48,350.05,332.82,24.17,0000 0000 0000 0000 000000
2014-02-20 02:09:51,0.39,5.95,0.00,15.59,20.63,22.13,6.33,33.29,1019.25,2060.79,1801.92,2059.92,2234.21,350.49,333.80,24.18,0000 0000 0000 0000 000000
2014-02-20 02:10:51,0.34,5.95,0.00,15.59,20.62,22.15,6.21,33.00,1019.21,2060.86,1801.52,2059.62,2234.08,350.54,333.32,24.18,0000 0000 0000 0000 000000
2014-02-20 02:11:51,0.41,5.96,0.00,15.59,20.62,22.17,6.13,33.21,1019.17,2060.86,1801.19,2059.28,2234.03,350.29,333.28,24.19,0000 0000 0000 0000 000000
2014-02-20 02:12:52,0.26,5.96,0.00,15.59,20.60,22.22,6.22,33.25,1019.20,2060.90,1801.07,2059.11,2234.00,349.97,333.09,24.20,0000 0000 0000 0000 000000
2014-02-20 02:13:52,0.15,5.96,0.00,15.61,20.59,22.22,6.11,32.83,1019.21,2060.92,1801.00,2059.04,2233.99,350.18,333.15,24.20,0000 0000 0000 0000 000000
2014-02-20 02:14:52,0.09,5.96,0.00,15.63,20.59,22.22,6.34,33.13,1019.25,2060.96,1801.00,2059.01,2233.95,350.65,333.70,24.21,0000 0000 0000 0000 000000
2014-02-20 02:15:52,0.05,5.96,0.00,15.64,20.58,22.24,6.16,33.08,1019.28,2060.97,1801.00,2059.00,2233.54,349.44,332.30,24.21,0000 0000 0000 0000 000000
2014-02-20 02:16:52,0.12,5.96,0.00,15.64,20.57,22.21,6.10,32.96,1019.25,2060.98,1800.89,2058.98,2233.20,349.74,333.18,24.22,0000 0000 0000 0000 000000
2014-02-20 02:17:53,0.17,5.96,0.00,15.65,20.57,22.21,6.17,33.21,1019.24,2060.99,1800.52,2058.86,2233.07,349.99,333.06,24.22,0000 0000 0000 0000 000000
2014-02-20 02:18:53,0.24,5.96,0.00,15.66,20.56,22.24,6.08,33.13,1019.30,2060.99,1800.19,2058.44,2233.02,349.40,332.51,24.23,0000 0000 0000 0000 000000
2014-02-20 02:19:53,0.27,5.96,0.00,15.66,20.55,22.24,6.14,33.17,1019.35,2060.99,1800.05,2058.18,2232.83,348.86,332.01,24.24,0000 0000 0000 0000 000000
2014-02-20 02:20:53,0.23,5.97,0.00,15.66,20.54,22.25,6.02,33.25,1019.30,2060.99,1799.80,2058.07,2232.40,350.27,333.33,24.24,0000 0000 0000 0000 000000
2014-02-20 02:21:53,0.26,5.97,0.00,15.67,20.54,22.24,6.19,33.29,1019.24,2060.99,1799.34,2058.02,2232.15,349.87,332.93,24.25,0000 0000 0000 0000 000000
2014-02-20 02:22:54,0.23,5.97,0.00,15.67,20.53,22.24,6.05,33.21,1019.12,2060.99,1799.12,2057.93,2232.05,348.91,331.97,24.25,0000 0000 0000 0000 000000
2014-02-20 02:23:54,0.15,5.97,0.00,15.69,20.52,22.24,6.22,33.25,1019.12,2060.99,1798.99,2057.62,2232.01,350.69,333.65,24.26,0000 0000 0000 0000 000000
2014-02-20 02:24:54,0.19,5.97,0.00,15.69,20.52,22.22,6.23,33.29,1019.08,2060.99,1798.54,2057.27,2231.95,350.26,333.21,24.27,0000 0000 0000 0000 000000
2014-02-20 02:25:54,0.32,5.97,0.00,15.69,20.52,22.20,6.19,33.13,1019.10,2060.99,1798.20,2057.10,2231.59,349.56,332.44,24.27,0000 0000 0000 0000 000000
2014-02-20 02:26:55,0.30,5.97,0.00,15.71,20.52,22.27,6.13,32.96,1019.11,2060.99,1798.07,2057.03,2231.23,349.67,332.65,24.28,0000 0000 0000 0000 000000
2014-02-20 02:27:55,0.17,5.98,0.00,15.72,20.50,22.36,6.23,33.21,1019.15,2060.99,1797.76,2056.95,2231.08,350.52,333.22,24.28,0000 0000 0000 0000 000000
2014-02-20 02:28:55,0.25,5.98,0.00,15.74,20.50,22.45,6.27,33.33,1019.20,2060.99,1797.31,2056.52,2231.02,351.08,333.83,24.29,0000 0000 0000 0000 000000
2014-02-20 02:29:56,0.35,5.98,0.00,15.78,20.49,22.70,6.20,33.33,1019.25,2060.99,1797.10,2056.21,2230.86,350.26,333.06,24.29,0000 0000 0000 0000 000000
2014-02-20 02:30:56,0.25,5.98,0.00,15.83,20.49,22.89,6.19,33.54,1019.32,2060.99,1796.97,2056.08,2230.38,349.09,332.31,24.30,0000 0000 0000 0000 000000
2014-02-20 02:31:56,0.24,5.98,0.00,15.87,20.49,23.05,6.27,33.38,1019.38,2060.99,1796.47,2056.02,2230.13,349.93,332.79,24.31,0000 0000 0000 0000 000000
2014-02-20 02:32:56,0.28,5.98,0.00,15.91,20.49,23.14,6.05,33.17,1019.47,2061.00,1796.17,2055.94,2230.05,350.04,332.53,24.31,0000 0000 0000 0000 000000
2014-02-20 02:33:57,0.17,5.98,0.00,15.95,20.49,23.18,6.17,33.25,1019.43,2061.02,1796.05,2055.55,2230.01,350.55,332.76,24.32,0000 0000 0000 0000 000000
2014-02-20 02:34:57,0.25,5.99,0.00,15.99,20.49,23.23,6.24,33.33,1019.37,2061.02,1795.74,2055.22,2229.79,349.62,332.37,24.32,0000 0000 0000 0000 000000
2014-02-20 02:35:57,0.35,5.99,0.00,16.02,20.49,23.25,6.25,33.21,1019.34,2061.01,1795.29,2055.08,2229.31,350.14,332.55,24.33,0000 0000 0000 0000 000000